Date String (YYYY-MM-DD hh:mm:ss) UTC,Instrument flags,Ambient pressure (hPa),Sample flow (lpm),Bypass flow (lpm),Sample temperature (°C),Ambient temperature (°C),ASC tube jacket temperature (°C),LED temperature (°C),Box temperature (°C),Sample RH (%),Span deviation,Mass concentration (μg/m³),Mass concentration (μg/m³),Mass concentration (μg/m³)
DateTimeUTC,F1_M11,P_M11,Q1_M11,Q2_M11,T1_M11,T2_M11,T3_M11,T4_M11,T5_M11,U1_M11,ZSPAN_M11,X0_M11,X2_M11,X1_M11
2023-01-30 21:00:00,,0823.6,5.00,0.00,22.6,21.3,00.0,31.4,24.4,04.4,0000.4,0010.90,0007.09,0006.47
2023-01-30 21:01:00,,0823.7,5.02,0.00,22.7,22.4,00.0,31.4,24.6,04.4,0001.0,0010.89,0007.12,0006.51
2023-01-30 21:02:00,,0823.7,4.98,0.00,22.8,23.1,00.0,31.5,24.8,04.4,0001.9,0010.97,0007.16,0006.54
2023-01-30 21:03:00,,0823.8,5.01,0.00,22.9,22.9,00.0,31.5,24.9,04.4,0002.5,0011.03,0007.19,0006.58
2023-01-30 21:04:00,,0823.8,5.00,0.00,22.9,22.6,00.0,31.5,24.8,04.3,0002.8,0011.36,0007.26,0006.62
2023-01-30 21:05:00,,0823.8,5.00,0.00,22.9,22.3,00.0,31.6,24.7,04.4,0002.5,0011.78,0007.33,0006.65
2023-01-30 21:06:00,,0823.8,5.01,0.00,22.9,22.0,00.0,31.6,24.7,04.4,0002.4,0011.86,0007.37,0006.68
2023-01-30 21:07:00,,0823.7,4.99,0.00,22.9,21.8,00.0,31.6,24.7,04.4,0002.7,0011.79,0007.36,0006.70
2023-01-30 21:08:00,,0823.7,5.00,0.00,22.8,21.7,00.0,31.6,24.6,04.4,0002.4,0011.37,0007.37,0006.70
2023-01-30 21:09:00,,0823.7,5.00,0.00,22.8,21.6,00.0,31.6,24.6,04.5,0002.3,0011.52,0007.39,0006.69
2023-01-30 21:10:00,,0823.8,5.02,0.00,22.8,21.5,00.0,31.6,24.6,04.5,0002.7,0011.58,0007.38,0006.67
2023-01-30 21:11:00,,0824.0,5.00,0.00,22.8,21.4,00.0,31.6,24.5,04.4,0002.7,0011.53,0007.34,0006.64
2023-01-30 21:12:00,,0823.9,4.98,0.00,22.8,21.3,00.0,31.6,24.5,04.4,0002.4,0011.46,0007.30,0006.61
2023-01-30 21:13:00,,0823.8,5.01,0.00,22.8,21.3,00.0,31.6,24.5,04.4,0002.7,0011.37,0007.26,0006.59
2023-01-30 21:14:00,,0823.7,5.01,0.00,22.8,21.3,00.0,31.6,24.5,04.3,0002.6,0011.20,0007.20,0006.56
2023-01-30 21:15:00,,0823.7,5.01,0.00,22.8,21.2,00.0,31.6,24.5,04.3,0002.5,0011.15,0007.16,0006.52
2023-01-30 21:16:00,,0823.8,5.02,0.00,22.7,21.2,00.0,31.6,24.5,04.3,0002.7,0010.71,0007.09,0006.48
2023-01-30 21:17:00,,0823.8,4.99,0.00,22.7,21.2,00.0,31.6,24.5,04.3,0002.9,0010.74,0007.04,0006.46
2023-01-30 21:18:00,,0823.8,5.00,0.00,22.7,21.2,00.0,31.6,24.5,04.4,0002.6,0010.71,0007.03,0006.44
2023-01-30 21:19:00,,0823.8,5.00,0.00,22.7,21.1,00.0,31.6,24.5,04.4,0002.6,0010.68,0007.00,0006.40
2023-01-30 21:20:00,,0824.0,5.01,0.00,22.7,21.1,00.0,31.6,24.4,04.4,0002.7,0010.55,0006.97,0006.39
2023-01-30 21:21:00,,0824.0,5.01,0.00,22.7,21.2,00.0,31.6,24.4,04.3,0002.3,0010.45,0006.95,0006.40
2023-01-30 21:22:00,,0824.0,5.00,0.00,22.7,21.9,00.0,31.6,24.6,04.3,0002.3,0010.56,0006.97,0006.42
2023-01-30 21:23:00,,0824.0,5.00,0.00,22.9,22.9,00.0,31.6,24.9,04.3,0002.2,0010.66,0006.99,0006.43
2023-01-30 21:24:00,,0823.9,4.99,0.00,22.9,22.9,00.0,31.6,24.9,04.3,0001.7,0010.69,0007.00,0006.43
2023-01-30 21:25:00,,0823.9,5.00,0.00,23.0,22.6,00.0,31.6,24.9,04.3,0001.3,0010.72,0007.01,0006.43
2023-01-30 21:26:00,,0823.9,5.00,0.00,23.0,22.3,00.0,31.7,24.8,04.3,0001.1,0010.73,0007.01,0006.43
2023-01-30 21:27:00,,0824.0,5.01,0.00,22.9,22.0,00.0,31.7,24.8,04.3,0000.2,0010.63,0007.03,0006.44
2023-01-30 21:28:00,,0824.0,5.01,0.00,22.9,21.9,00.0,31.7,24.7,04.3,-000.5,0010.44,0007.05,0006.46
2023-01-30 21:29:00,,0824.0,5.01,0.00,22.9,21.7,00.0,31.7,24.7,04.3,-000.9,0010.44,0007.06,0006.47
2023-01-30 21:30:00,,0824.1,5.00,0.00,22.9,21.6,00.0,31.7,24.7,04.3,-000.5,0010.45,0007.08,0006.49
2023-01-30 21:31:00,,0824.1,4.98,0.00,22.9,21.6,00.0,31.7,24.7,04.3,-000.3,0010.50,0007.09,0006.51
2023-01-30 21:32:00,,0824.0,5.01,0.00,22.9,21.5,00.0,31.7,24.6,04.4,0000.0,0010.99,0007.10,0006.53
2023-01-30 21:33:00,,0824.0,4.99,0.00,22.9,21.4,00.0,31.7,24.6,04.3,-000.3,0010.93,0007.09,0006.53
2023-01-30 21:34:00,,0824.0,5.00,0.00,22.8,21.3,00.0,31.7,24.6,04.3,-000.6,0010.94,0007.09,0006.53
2023-01-30 21:35:00,,0824.0,4.99,0.00,22.8,21.3,00.0,31.7,24.6,04.3,-000.9,0010.99,0007.11,0006.53
2023-01-30 21:36:00,,0824.1,5.01,0.00,22.8,21.3,00.0,31.7,24.6,04.3,-001.3,0011.11,0007.14,0006.55
2023-01-30 21:37:00,,0824.1,5.01,0.00,22.8,21.2,00.0,31.7,24.5,04.3,-001.7,0011.16,0007.15,0006.57
2023-01-30 21:38:00,,0824.1,5.01,0.00,22.8,21.2,00.0,31.7,24.5,04.2,-000.9,0011.19,0007.19,0006.60
2023-01-30 21:39:00,,0824.2,5.00,0.00,22.8,21.1,00.0,31.7,24.5,04.3,-000.5,0011.35,0007.22,0006.61
2023-01-30 21:40:00,,0824.3,5.00,0.00,22.8,21.4,00.0,31.6,24.5,04.3,-000.3,0011.43,0007.25,0006.61
2023-01-30 21:41:00,,0824.2,4.99,0.00,22.8,22.3,00.0,31.6,24.8,04.4,-000.7,0011.43,0007.25,0006.59
2023-01-30 21:42:00,,0824.4,4.98,0.00,22.9,22.9,00.0,31.6,25.0,04.3,-000.8,0011.46,0007.26,0006.60
2023-01-30 21:43:00,,0824.2,5.00,0.00,23.0,22.7,00.0,31.7,24.9,04.3,-000.2,0010.97,0007.28,0006.59
2023-01-30 21:44:00,,0824.1,4.99,0.00,23.0,22.4,00.0,31.7,24.9,04.3,0000.2,0010.92,0007.28,0006.59
2023-01-30 21:45:00,,0824.2,5.01,0.00,23.0,22.1,00.0,31.7,24.8,04.3,0000.1,0010.86,0007.28,0006.59
2023-01-30 21:46:00,,0824.2,4.99,0.00,23.0,21.8,00.0,31.7,24.7,04.2,0000.6,0010.82,0007.28,0006.61
2023-01-30 21:47:00,,0824.4,5.03,0.00,22.9,21.5,00.0,31.7,24.6,04.1,0001.0,0010.76,0007.28,0006.61
2023-01-30 21:48:00,,0824.3,4.99,0.00,22.9,21.4,00.0,31.7,24.6,04.1,0001.4,0010.72,0007.28,0006.61
2023-01-30 21:49:00,,0824.4,5.03,0.00,22.9,21.3,00.0,31.7,24.5,04.2,0001.3,0010.75,0007.29,0006.61
2023-01-30 21:50:00,,0824.4,5.00,0.00,22.8,21.2,00.0,31.7,24.5,04.1,0001.6,0010.56,0007.24,0006.60
2023-01-30 21:51:00,,0824.3,4.99,0.00,22.8,21.1,00.0,31.7,24.5,04.1,0001.2,0010.39,0007.20,0006.61
2023-01-30 21:52:00,,0824.4,4.99,0.00,22.8,21.1,00.0,31.7,24.4,04.1,0001.1,0010.34,0007.19,0006.63
2023-01-30 21:53:00,,0824.4,5.00,0.00,22.7,21.0,00.0,31.7,24.4,04.2,0001.1,0010.29,0007.21,0006.65
2023-01-30 21:54:00,,0824.4,5.00,0.00,22.7,21.0,00.0,31.7,24.4,04.2,0000.9,0010.33,0007.24,0006.68
2023-01-30 21:55:00,,0824.4,4.99,0.00,22.7,21.0,00.0,31.7,24.4,04.2,0001.0,0010.37,0007.28,0006.71
2023-01-30 21:56:00,,0824.3,4.99,0.00,22.7,21.0,00.0,31.6,24.4,04.3,0001.1,0010.42,0007.31,0006.72
2023-01-30 21:57:00,,0824.3,4.98,0.00,22.7,21.0,00.0,31.6,24.3,04.4,0000.5,0010.40,0007.29,0006.71
2023-01-30 21:58:00,,0824.4,4.99,0.00,22.7,21.1,00.0,31.6,24.4,04.4,-000.1,0010.36,0007.26,0006.69
2023-01-30 21:59:00,,0824.4,5.01,0.00,22.7,22.0,00.0,31.6,24.6,04.4,-000.1,0010.33,0007.25,0006.68
